This is the latest recevied weather packets stored in our database for station/object N0ZMJ-4. If no packets are shown the sender has not sent any weather packets the latest 10 day(s).
| Time | Temp. | Humidity | Pressure | Rain* | Wind** | Luminosity | Snow |
|---|---|---|---|---|---|---|---|
| 1777844703 | 21.11° C | 36% | 1006.2 hPa | 0 mm | - | - | - |
| 1777844403 | 21.11° C | 33% | 1006.4 hPa | 0 mm | - | - | - |
| 1777844103 | 21.11° C | 35% | 1006.5 hPa | 0 mm | - | - | - |
| 1777843803 | 21.11° C | 36% | 1006.6 hPa | 0 mm | - | - | - |
| 1777843502 | 21.11° C | 37% | 1006.6 hPa | 0 mm | - | - | - |
| 1777843203 | 21.11° C | 37% | 1006.8 hPa | 0 mm | - | - | - |
| 1777842903 | 21.11° C | 40% | 1006.8 hPa | 0 mm | - | - | - |
| 1777842603 | 21.11° C | 38% | 1007 hPa | 0 mm | - | - | - |
| 1777842303 | 21.11° C | 38% | 1007.1 hPa | 0 mm | - | - | - |
| 1777842003 | 21.11° C | 37% | 1007.1 hPa | 0 mm | - | - | - |
| 1777841703 | 21.11° C | 36% | 1007.1 hPa | 0 mm | - | - | - |
| 1777841403 | 21.11° C | 35% | 1007.1 hPa | 0 mm | - | - | - |
| 1777841103 | 20.56° C | 39% | 1007.2 hPa | 0 mm | - | - | - |
| 1777840802 | 20.56° C | 37% | 1007.3 hPa | 0 mm | - | - | - |
| 1777840503 | 20.56° C | 38% | 1007.4 hPa | 0 mm | - | - | - |
| 1777840203 | 20.56° C | 38% | 1007.6 hPa | 0 mm | - | - | - |
| 1777839903 | 20.56° C | 38% | 1007.6 hPa | 0 mm | - | - | - |
| 1777839603 | 20° C | 37% | 1007.6 hPa | 0 mm | - | - | - |
| 1777839303 | 20.56° C | 40% | 1007.7 hPa | 0 mm | - | - | - |
| 1777839003 | 20° C | 35% | 1008 hPa | 0 mm | - | - | - |
| 1777838702 | 20° C | 38% | 1008 hPa | 0 mm | - | - | - |
| 1777838403 | 20.56° C | 37% | 1008.1 hPa | 0 mm | - | - | - |
| 1777838103 | 20° C | 40% | 1008.2 hPa | 0 mm | - | - | - |
| 1777837803 | 20° C | 41% | 1008.2 hPa | 0 mm | - | - | - |
| 1777837503 | 20° C | 40% | 1008.3 hPa | 0 mm | - | - | - |
* Rain latest hour (hover to see other rain measurements)
** Current wind speed in m/s (hover to see current wind gust speed)